Retour au catalogue

ICEYE-X7

ActifScienceSSO
NORAD 46496·PAYLOAD·🇫🇮 Finland

Lancé Sep 28, 2020 depuis Plesetsk Cosmodrome

Loading…

Prochains Passages (prochaines 24 heures)

TLE

FraisSource: Space-Track

Époque: Sep 14, 2026, 22:16 UTC

1 46496U 20068L   26257.92818067  .00010424  00000-0  32733-3 0  9990
2 46496  97.7596 228.6935 0007950  24.6340 335.5279 15.33189748328533

Suivez ICEYE-X7 en temps réel avec AllMySat

Download on the App Store